KA1AL Weather Reports


time (UTC)temp
C
wind
direction
speed
KPH
gust
KPH
rain 1hr
cm
rain 24hr
cm
rain mn
cm
humidity
%
barometer
mb
20260507095544 5 223 3.2 3.2 0.00 0.25 0.25 99 1004.5
20260507095040 5 158 0.0 0.0 0.00 0.25 0.25 99 1004.6
20260507094536 5 208 1.6 1.6 0.00 0.25 0.25 99 1004.2
20260507094033 5 78 1.6 1.6 0.00 0.25 0.25 99 1004.5
20260507093531 5 266 4.8 4.8 0.00 0.25 0.25 99 1004.4
20260507093029 5 219 3.2 3.2 0.00 0.25 0.25 99 1004.6
20260507092525 5 217 4.8 8.0 0.00 0.25 0.25 99 1004.7
20260507092022 5 191 3.2 3.2 0.00 0.25 0.25 99 1004.5
20260507091519 5 225 4.8 4.8 0.00 0.25 0.25 99 1004.1
20260507091015 5 155 0.0 0.0 0.00 0.25 0.25 99 1003.5
20260507090511 5 6 1.6 3.2 0.00 0.25 0.25 99 1003.8
20260507090008 5 176 0.0 0.0 0.00 0.25 0.25 99 1003.7
20260507085505 5 180 0.0 0.0 0.00 0.25 0.25 99 1003.7
20260507085001 5 197 4.8 4.8 0.00 0.25 0.25 99 1003.8
20260507084458 5 198 0.0 1.6 0.00 0.25 0.25 99 1004.0
20260507083955 5 354 1.6 3.2 0.00 0.25 0.25 99 1004.1
20260507083452 5 201 3.2 3.2 0.00 0.25 0.25 99 1004.4
20260507082948 5 211 4.8 8.0 0.00 0.25 0.25 99 1004.7
20260507082444 5 256 4.8 4.8 0.00 0.25 0.25 99 1004.7
20260507081941 5 241 6.4 8.0 0.00 0.25 0.25 99 1004.7
20260507081437 5 253 1.6 3.2 0.00 0.25 0.25 99 1004.2
20260507080935 5 88 1.6 3.2 0.00 0.25 0.25 99 1004.7
20260507080430 5 180 3.2 3.2 0.00 0.25 0.25 99 1004.0
20260507075926 5 47 4.8 4.8 0.00 0.25 0.25 99 1003.8
20260507075422 5 169 0.0 1.6 0.00 0.25 0.25 99 1004.0
20260507074919 5 149 1.6 1.6 0.00 0.25 0.25 99 1004.4
20260507074416 5 162 1.6 1.6 0.00 0.25 0.25 99 1004.1
20260507073914 5 249 1.6 3.2 0.00 0.25 0.25 99 1004.4
20260507073410 5 57 3.2 3.2 0.00 0.25 0.25 99 1004.2
20260507072907 5 145 0.0 1.6 0.00 0.25 0.25 99 1004.1
20260507072404 5 352 1.6 3.2 0.00 0.25 0.25 99 1003.9
20260507071902 5 29 4.8 4.8 0.00 0.25 0.25 99 1003.7
20260507071359 5 37 1.6 3.2 0.00 0.25 0.25 99 1003.4
20260507070855 5 48 3.2 4.8 0.00 0.25 0.25 99 1003.5
20260507070353 5 217 8.0 12.9 0.00 0.25 0.25 99 1003.3
20260507065849 5 155 3.2 4.8 0.00 0.25 0.25 99 1003.5
20260507065346 5 309 4.8 8.0 0.00 0.25 0.25 99 1003.7
20260507064843 5 139 1.6 1.6 0.00 0.25 0.25 99 1003.5
20260507064341 5 35 6.4 11.3 0.00 0.25 0.25 99 1003.8
20260507063839 5 99 0.0 1.6 0.00 0.25 0.25 99 1003.8
20260507063335 5 28 1.6 3.2 0.00 0.25 0.25 99 1004.0
20260507062832 5 317 9.7 14.5 0.00 0.25 0.25 99 1003.5
20260507062329 5 337 6.4 8.0 0.00 0.25 0.25 99 1003.8
20260507061827 5 350 4.8 4.8 0.00 0.25 0.25 99 1003.5
20260507061325 6 43 4.8 8.0 0.00 0.25 0.25 99 1003.3
20260507060824 6 46 1.6 1.6 0.00 0.25 0.25 99 1003.6
20260507060320 6 192 3.2 4.8 0.00 0.25 0.25 99 1003.7
20260507055816 6 158 1.6 1.6 0.00 0.25 0.25 99 1003.8
20260507055311 6 183 0.0 1.6 0.00 0.25 0.25 99 1003.9
20260507054808 6 88 1.6 3.2 0.00 0.25 0.25 99 1003.7
20260507054304 6 82 3.2 3.2 0.00 0.25 0.25 99 1003.4
20260507053802 6 313 4.8 4.8 0.13 0.25 0.25 99 1003.0
20260507053259 6 51 3.2 3.2 0.13 0.25 0.25 99 1003.8
20260507052758 6 179 3.2 4.8 0.00 0.23 0.23 99 1003.7
20260507052254 6 306 3.2 3.2 0.00 0.23 0.23 99 1003.9
20260507051753 6 309 3.2 3.2 0.00 0.23 0.23 99 1003.9
20260507051249 6 190 1.6 1.6 0.00 0.23 0.23 99 1003.6
20260507050746 6 239 1.6 3.2 0.00 0.23 0.23 99 1003.6
20260507050243 6 47 8.0 11.3 0.00 0.23 0.23 99 1003.5
20260507045740 6 350 4.8 4.8 0.00 0.23 0.23 99 1003.5
20260507045235 6 358 8.0 9.7 0.18 0.23 0.23 99 1003.5
20260507044733 6 23 4.8 4.8 0.30 0.23 0.23 99 1003.3
20260507044229 6 36 6.4 11.3 0.30 0.20 0.20 99 1003.7
20260507043726 6 51 4.8 4.8 0.48 0.20 0.20 99 1003.8
20260507043223 6 36 3.2 4.8 0.48 0.15 0.15 99 1003.9
20260507042720 7 85 1.6 1.6 0.43 0.13 0.13 99 1003.9
20260507042220 7 55 3.2 4.8 0.30 0.10 0.10 99 1003.9
20260507041718 7 292 3.2 4.8 0.18 0.05 0.05 99 1003.9
20260507041214 7 19 3.2 3.2 0.30 0.05 0.05 99 1003.8
20260507040711 7 6 8.0 11.3 0.43 0.03 0.03 99 1003.8
20260507040207 7 31 6.4 11.3 0.30 0.00 0.00 99 1003.2
20260507035703 7 35 3.2 3.2 0.18 4.50 4.50 99 1003.6
20260507035159 7 332 6.4 9.7 0.18 4.50 4.50 99 1004.1
20260507034656 7 52 3.2 4.8 0.00 4.47 4.47 99 1003.7
20260507034154 7 45 4.8 8.0 0.00 4.47 4.47 99 1003.9
20260507033652 7 357 4.8 4.8 0.00 4.47 4.47 99 1003.4
20260507033149 7 23 8.0 11.3 0.13 4.47 4.47 99 1003.4
20260507032646 7 177 3.2 3.2 0.30 4.47 4.47 99 1003.3
20260507032142 7 28 9.7 11.3 0.36 4.45 4.45 99 1003.3
20260507031639 7 348 8.0 9.7 0.30 4.42 4.42 99 1003.2
20260507031135 7 10 6.4 8.0 0.43 4.39 4.39 99 1003.4
20260507030632 7 23 4.8 4.8 0.30 4.37 4.37 99 1003.5
20260507030130 7 15 4.8 4.8 0.30 4.32 4.32 99 1003.5
20260507025627 7 339 6.4 9.7 0.48 4.32 4.32 99 1003.5
20260507025124 8 340 4.8 8.0 0.30 4.27 4.27 99 1003.6
20260507024622 8 307 4.8 8.0 0.13 4.24 4.24 99 1003.4
20260507024119 8 57 4.8 4.8 0.00 4.22 4.22 99 1003.3
20260507023614 8 21 6.4 8.0 0.00 4.22 4.22 99 1003.1
20260507023112 8 353 1.6 4.8 0.00 4.22 4.22 99 1003.4
20260507022609 8 85 1.6 1.6 0.18 4.22 4.22 99 1003.3
20260507022059 8 157 1.6 1.6 0.18 4.22 4.22 99 1003.2
20260507021555 8 209 1.6 1.6 0.00 4.19 4.19 99 1003.3
20260507021051 9 11 4.8 4.8 0.00 4.19 4.19 99 1003.1
20260507020549 9 143 0.0 1.6 0.00 4.19 4.19 99 1003.3
20260507020045 9 23 0.0 1.6 0.00 4.19 4.19 99 1003.3
20260507015544 9 174 0.0 0.0 0.00 4.19 4.19 99 1003.2
20260507015041 10 165 0.0 1.6 0.13 4.19 4.19 99 1003.3
20260507014537 9 117 1.6 1.6 0.43 4.19 4.19 99 1003.4
20260507014033 9 62 1.6 3.2 0.79 4.17 4.17 99 1003.5
20260507013530 9 158 0.0 0.0 0.97 4.11 4.11 99 1003.6
20260507013027 9 175 1.6 1.6 0.79 4.04 4.04 99 1003.6
20260507012524 9 256 3.2 3.2 0.79 3.99 3.99 99 1004.1
20260507012020 10 35 4.8 4.8 1.19 3.91 3.91 99 1003.9
20260507011519 10 299 3.2 3.2 1.19 3.86 3.86 99 1004.1
20260507011014 11 241 6.4 8.0 0.89 3.73 3.73 99 1004.1
20260507010508 11 209 3.2 3.2 0.89 3.66 3.66 99 1004.4
20260507010005 11 259 8.0 9.7 0.61 3.58 3.58 99 1004.1
20260507005503 11 201 4.8 4.8 0.48 3.51 3.51 99 1004.0
20260507004959 11 241 6.4 9.7 0.48 3.48 3.48 99 1003.9
20260507004456 11 157 6.4 9.7 0.48 3.45 3.45 99 1003.8
20260507003954 11 189 1.6 3.2 0.43 3.40 3.40 99 1004.1
20260507003448 11 205 6.4 8.0 0.30 3.38 3.38 99 1003.8
20260507002943 11 166 8.0 11.3 0.30 3.35 3.35 99 1003.9
20260507002440 11 194 8.0 11.3 0.18 3.33 3.33 99 1003.8
20260507001937 11 142 3.2 3.2 0.00 3.30 3.30 99 1003.8
20260507001433 11 201 3.2 4.8 0.00 3.30 3.30 99 1004.2
20260507000931 11 186 6.4 8.0 0.00 3.30 3.30 99 1004.0
20260507000427 11 140 3.2 3.2 0.00 3.30 3.30 99 1003.8
20260506235922 11 147 11.3 12.9 0.13 3.30 3.30 99 1003.8
20260506235421 11 173 3.2 4.8 0.13 3.30 3.30 99 1004.0
20260506234915 11 193 4.8 4.8 0.00 3.28 3.28 99 1004.0
20260506234414 11 162 3.2 4.8 0.18 3.28 3.28 99 1004.2
20260506233911 11 212 3.2 3.2 0.18 3.28 3.28 99 1004.0
20260506233406 11 226 6.4 9.7 0.00 3.25 3.25 99 1004.1
20260506232904 11 197 4.8 4.8 0.00 3.25 3.25 99 1004.2
20260506232400 11 199 4.8 4.8 0.00 3.25 3.25 99 1004.2
20260506231856 11 191 4.8 4.8 0.00 3.25 3.25 99 1004.2
20260506231354 11 153 4.8 4.8 0.00 3.25 3.25 99 1004.0
20260506230851 12 147 9.7 11.3 0.13 3.25 3.25 99 1004.4
20260506230348 12 220 3.2 4.8 0.13 3.25 3.25 99 1004.2
20260506225843 12 173 3.2 3.2 0.00 3.23 3.23 99 1004.2
20260506225341 12 202 6.4 9.7 0.00 3.23 3.23 99 1004.1
20260506224838 12 173 4.8 4.8 0.00 3.23 3.23 99 1004.5
20260506224336 12 201 3.2 3.2 0.18 3.23 3.23 99 1004.8
20260506223832 12 217 4.8 4.8 0.30 3.23 3.23 99 1004.8
20260506223327 12 193 1.6 3.2 0.30 3.20 3.20 99 1004.5
20260506222824 12 205 6.4 8.0 0.36 3.17 3.17 99 1004.9
20260506222320 11 167 4.8 4.8 0.18 3.15 3.15 99 1004.8
20260506221818 12 204 8.0 9.7 0.00 3.12 3.12 99 1004.8
20260506221315 12 225 6.4 9.7 0.13 3.12 3.12 99 1004.9
20260506220814 12 251 11.3 14.5 0.30 3.12 3.12 99 1004.9
20260506220314 12 204 8.0 12.9 0.30 3.10 3.10 99 1004.8
20260506215810 12 267 6.4 8.0 0.71 3.07 3.07 99 1004.8
20260506215306 12 211 4.8 8.0 1.07 3.05 3.05 99 1004.8
20260506214802 12 242 8.0 11.3 0.61 2.95 2.95 99 1004.8
20260506214259 12 182 17.7 24.1 0.48 2.90 2.90 99 1004.4
20260506213758 12 166 4.8 4.8 0.36 2.84 2.84 99 1004.4
20260506213254 11 204 8.0 9.7 0.18 2.82 2.82 99 1004.2
20260506212752 11 183 3.2 3.2 0.00 2.79 2.79 99 1004.5
20260506212247 11 234 8.0 11.3 0.13 2.79 2.79 99 1004.6
20260506211743 11 165 4.8 9.7 0.13 2.79 2.79 99 1004.7
20260506211239 11 225 8.0 11.3 0.00 2.77 2.77 99 1004.8
20260506210736 11 217 4.8 4.8 0.00 2.77 2.77 99 1004.6
20260506210233 11 177 11.3 14.5 0.00 2.77 2.77 99 1004.7
20260506205730 11 188 12.9 14.5 0.18 2.77 2.77 99 1004.8
20260506205226 11 188 6.4 9.7 0.18 2.77 2.77 99 1005.2
20260506204723 11 158 4.8 9.7 0.13 2.74 2.74 99 1004.9
20260506204220 11 211 9.7 11.3 0.30 2.74 2.74 99 1005.1
20260506203718 11 250 12.9 14.5 0.30 2.72 2.72 99 1005.2
20260506203215 11 154 16.1 20.9 0.30 2.69 2.69 99 1005.5
20260506202713 12 189 11.3 16.1 0.30 2.67 2.67 99 1005.3
20260506202209 12 188 11.3 16.1 0.43 2.64 2.64 99 1005.3
20260506201706 12 168 17.7 25.7 0.79 2.62 2.62 99 1005.3
20260506201203 12 178 12.9 14.5 1.07 2.59 2.59 99 1005.2
20260506200659 12 242 16.1 17.7 2.46 2.49 2.49 99 1005.4
20260506200156 12 194 11.3 22.5 2.59 2.41 2.41 99 1005.3
20260506195653 12 209 9.7 11.3 1.32 2.13 2.13 99 1005.8
20260506195149 12 251 8.0 11.3 0.79 1.98 1.98 99 1005.7
20260506194647 12 233 12.9 14.5 1.07 1.91 1.91 99 1005.4
20260506194142 12 201 4.8 8.0 2.11 1.85 1.85 99 1005.4
20260506193641 12 219 19.3 25.7 2.59 1.73 1.73 99 1005.8
20260506193138 12 261 6.4 8.0 2.16 1.50 1.50 99 1005.8
20260506192634 12 232 3.2 3.2 1.68 1.30 1.30 99 1005.7
20260506192130 12 288 4.8 4.8 1.19 1.14 1.14 99 1005.8
20260506191627 12 209 4.8 4.8 1.19 1.04 1.04 99 1005.6
20260506191123 12 243 4.8 4.8 0.97 0.91 0.91 99 1005.8
20260506190621 12 229 8.0 9.7 0.71 0.81 0.81 99 1005.6
20260506190118 12 223 3.2 3.2 0.71 0.76 0.76 99 1005.5
20260506185615 12 193 3.2 4.8 0.66 0.69 0.69 99 1005.6
20260506185111 12 184 4.8 4.8 0.48 0.64 0.64 99 1005.5
20260506184609 12 256 8.0 9.7 0.48 0.61 0.61 99 1005.6
20260506184106 12 208 8.0 8.0 0.30 0.56 0.56 99 1005.8
20260506183602 12 193 6.4 8.0 0.43 0.53 0.53 99 1005.9
20260506183058 12 161 8.0 9.7 0.48 0.51 0.51 99 1005.8
20260506182556 12 161 1.6 1.6 0.30 0.46 0.46 99 1006.1
20260506182052 12 192 3.2 3.2 0.30 0.43 0.43 99 1006.2
20260506181551 12 201 3.2 3.2 0.30 0.41 0.41 99 1005.9
20260506181047 12 186 4.8 8.0 0.30 0.38 0.38 99 1006.2
20260506180544 12 173 8.0 11.3 0.30 0.36 0.36 99 1006.1
20260506180040 12 170 4.8 8.0 0.30 0.33 0.33 99 1006.7
20260506175537 12 217 9.7 12.9 0.18 0.30 0.30 99 1006.4
20260506175033 12 121 3.2 3.2 0.18 0.28 0.28 99 1006.4
20260506174532 12 181 3.2 3.2 0.18 0.28 0.28 99 1006.6
20260506174028 12 186 4.8 4.8 0.00 0.25 0.25 99 1006.6
20260506173526 12 171 1.6 3.2 0.13 0.25 0.25 99 1006.5
20260506173022 12 181 3.2 3.2 0.30 0.25 0.25 99 1006.5
20260506172520 12 203 4.8 8.0 0.18 0.23 0.23 99 1006.6
20260506172016 12 195 3.2 3.2 0.30 0.23 0.23 99 1006.5
20260506171513 12 165 1.6 1.6 0.13 0.20 0.20 99 1006.6
20260506171011 12 184 1.6 3.2 0.18 0.18 0.18 99 1006.8
20260506170508 12 170 1.6 1.6 0.30 0.18 0.18 99 1006.7
20260506170006 12 164 1.6 1.6 0.13 0.15 0.15 99 1007.2
20260506165504 12 151 3.2 3.2 0.18 0.13 0.13 99 1007.5
20260506165000 12 173 3.2 3.2 0.18 0.13 0.13 99 1007.6
20260506164456 12 185 1.6 3.2 0.00 0.10 0.10 99 1007.9
20260506163954 12 218 4.8 4.8 0.13 0.10 0.10 99 1008.1
20260506163449 12 117 3.2 3.2 0.13 0.10 0.10 99 1007.9
20260506162944 12 160 3.2 3.2 0.00 0.08 0.08 99 1008.2
20260506162442 12 184 1.6 3.2 0.30 0.08 0.08 99 1008.0
20260506161939 12 158 0.0 0.0 0.30 0.08 0.08 99 1008.1
20260506161438 12 152 1.6 1.6 0.30 0.05 0.05 99 1008.0
20260506160934 12 164 1.6 3.2 0.18 0.03 0.03 99 1008.3
20260506160432 12 193 1.6 1.6 0.00 0.00 0.00 99 1008.0
20260506155929 12 130 3.2 3.2 0.00 0.00 0.00 99 1008.0
20260506155427 12 103 1.6 1.6 0.00 0.00 0.00 99 1007.8
20260506153548 12 65 4.8 8.0 0.00 0.00 0.00 97 1007.9
20260506153045 12 65 4.8 8.0 0.00 0.00 0.00 97 1008.2
20260506152542 12 113 8.0 11.3 0.00 0.00 0.00 96 1008.1
20260506152040 12 113 8.0 11.3 0.00 0.00 0.00 96 1008.1
20260506151538 12 104 6.4 8.0 0.00 0.00 0.00 96 1008.0
20260506151035 12 104 6.4 8.0 0.00 0.00 0.00 96 1008.4
20260506150531 12 153 8.0 12.9 0.00 0.00 0.00 96 1008.2
20260506150028 12 94 4.8 4.8 0.00 0.00 0.00 96 1008.1
20260506145525 12 145 4.8 9.7 0.00 0.00 0.00 96 1008.1
20260506145023 12 149 8.0 11.3 0.00 0.00 0.00 95 1008.1
20260506144519 12 143 1.6 3.2 0.00 0.00 0.00 95 1008.1
20260506144017 12 140 3.2 3.2 0.00 0.00 0.00 96 1008.0
20260506143514 12 99 4.8 4.8 0.00 0.00 0.00 97 1007.7
20260506143013 12 39 4.8 4.8 0.00 0.00 0.00 97 1007.9
20260506142510 12 58 4.8 4.8 0.00 0.00 0.00 98 1008.2
20260506142008 12 129 4.8 8.0 0.00 0.00 0.00 98 1008.0
20260506141506 12 83 4.8 4.8 0.00 0.00 0.00 98 1008.1
20260506141004 12 156 0.0 0.0 0.00 0.00 0.00 99 1008.3
20260506140500 12 54 4.8 4.8 0.00 0.00 0.00 99 1008.4
20260506135957 12 52 3.2 3.2 0.00 0.00 0.00 99 1008.5
20260506135454 11 106 4.8 4.8 0.00 0.00 0.00 99 1008.3
20260506134950 11 98 4.8 4.8 0.00 0.00 0.00 99 1008.4
20260506134446 11 141 1.6 1.6 0.00 0.00 0.00 99 1008.5
20260506133943 11 141 1.6 1.6 0.00 0.00 0.00 99 1008.6
20260506133441 11 59 4.8 4.8 0.00 0.00 0.00 99 1008.8
20260506132937 11 111 0.0 0.0 0.00 0.00 0.00 99 1009.1
20260506132434 11 133 1.6 1.6 0.00 0.00 0.00 99 1009.0
20260506131932 11 104 0.0 1.6 0.00 0.00 0.00 99 1008.8
20260506131428 11 125 0.0 1.6 0.00 0.00 0.00 99 1009.3
20260506130925 11 139 0.0 0.0 0.00 0.00 0.00 99 1009.3
20260506130421 11 156 0.0 1.6 0.00 0.00 0.00 99 1009.3
20260506125920 11 105 3.2 3.2 0.00 0.00 0.00 99 1009.0
20260506125418 11 60 3.2 3.2 0.00 0.00 0.00 99 1009.1
20260506124916 11 117 3.2 3.2 0.00 0.00 0.00 99 1009.2
20260506124413 11 111 1.6 1.6 0.00 0.00 0.00 99 1009.0
20260506123911 11 149 4.8 4.8 0.00 0.00 0.00 99 1009.1
20260506123408 11 112 3.2 3.2 0.00 0.00 0.00 99 1009.1
20260506122906 11 115 1.6 3.2 0.00 0.00 0.00 99 1009.3
20260506122402 11 105 1.6 3.2 0.00 0.00 0.00 99 1009.2
20260506121901 11 94 3.2 3.2 0.00 0.00 0.00 99 1009.2
20260506121357 11 112 1.6 1.6 0.00 0.00 0.00 99 1009.1
20260506120854 11 73 3.2 3.2 0.00 0.00 0.00 99 1009.5
20260506120352 11 119 1.6 1.6 0.00 0.00 0.00 99 1009.4
20260506115849 11 172 1.6 1.6 0.00 0.00 0.00 99 1009.3
20260506115347 11 117 3.2 4.8 0.00 0.00 0.00 99 1009.0
20260506114845 11 114 1.6 1.6 0.00 0.00 0.00 99 1009.0
20260506114342 11 110 1.6 3.2 0.00 0.00 0.00 99 1009.1
20260506113841 11 133 1.6 3.2 0.00 0.00 0.00 99 1009.2
20260506113338 11 108 3.2 3.2 0.00 0.00 0.00 99 1009.6
20260506112834 10 84 0.0 1.6 0.00 0.00 0.00 99 1009.3
20260506112332 10 115 1.6 1.6 0.00 0.00 0.00 99 1009.4
20260506111829 10 113 3.2 3.2 0.00 0.00 0.00 99 1009.3
20260506111327 10 84 1.6 3.2 0.00 0.00 0.00 99 1009.3
20260506110824 10 119 1.6 3.2 0.00 0.00 0.00 99 1009.0
20260506110321 10 110 3.2 4.8 0.00 0.00 0.00 99 1009.4
20260506105818 10 76 4.8 4.8 0.00 0.00 0.00 99 1009.2
20260506105315 10 74 1.6 3.2 0.00 0.00 0.00 99 1009.5
20260506104812 10 92 1.6 1.6 0.00 0.00 0.00 99 1009.6
20260506104310 11 144 0.0 0.0 0.00 0.00 0.00 99 1009.3
20260506103808 11 102 1.6 1.6 0.00 0.00 0.00 99 1009.4
20260506103305 11 115 1.6 1.6 0.00 0.00 0.00 99 1009.3
20260506102802 11 70 1.6 3.2 0.00 0.00 0.00 98 1009.2
20260506102300 11 97 3.2 3.2 0.00 0.00 0.00 97 1009.0
20260506101757 11 92 1.6 3.2 0.00 0.00 0.00 97 1008.8
20260506101253 10 105 1.6 1.6 0.00 0.00 0.00 98 1009.0
20260506100751 10 111 0.0 0.0 0.00 0.00 0.00 99 1009.2
20260506100249 10 138 0.0 0.0 0.00 0.00 0.00 99 1009.1
20260506095747 10 138 0.0 0.0 0.00 0.00 0.00 99 1009.3